EW3714 Weather Reports


Display with metric or nautical units.
time (UTC)temp
F
wind
direction
speed
MPH
gust
MPH
rain 1hr
in
rain 24hr
in
rain mn
in
humidity
%
barometer
mb
20260508171744 79 117 0.0 2.0 0.00 0.00 0.00 64 1012.7
20260508171240 78 60 1.0 2.0 0.00 0.00 0.00 65 1012.5
20260508170737 77 101 0.0 2.0 0.00 0.00 0.00 66 1012.8
20260508170235 77 94 1.0 2.0 0.00 0.00 0.00 68 1012.9
20260508165732 76 44 0.0 2.0 0.00 0.00 0.00 68 1013.0
20260508165229 76 89 0.0 2.0 0.00 0.00 0.00 68 1013.0
20260508164725 76 45 0.0 2.0 0.00 0.00 0.00 67 1012.9
20260508164222 76 180 1.0 2.0 0.00 0.00 0.00 67 1013.1
20260508163720 75 84 2.0 2.0 0.00 0.00 0.00 68 1013.2
20260508163217 74 88 0.0 2.0 0.00 0.00 0.00 70 1013.3
20260508162713 73 37 0.0 3.0 0.00 0.00 0.00 71 1013.4
20260508162210 73 49 0.0 2.0 0.00 0.00 0.00 72 1013.5
20260508161707 72 112 1.0 2.0 0.00 0.00 0.00 71 1013.6
20260508161204 72 54 0.0 2.0 0.00 0.00 0.00 72 1013.8
20260508160702 72 103 0.0 2.0 0.00 0.00 0.00 73 1013.7
20260508160200 71 99 2.0 2.0 0.00 0.00 0.00 73 1013.8
20260508155657 71 95 1.0 2.0 0.00 0.00 0.00 73 1013.8
20260508155153 71 86 2.0 2.0 0.00 0.00 0.00 72 1013.9
20260508154651 71 44 2.0 2.0 0.00 0.00 0.00 74 1013.7
20260508154148 71 66 2.0 2.0 0.00 0.00 0.00 73 1013.6
20260508153644 70 74 2.0 4.0 0.00 0.00 0.00 73 1013.6
20260508153141 70 99 1.0 2.0 0.00 0.00 0.00 73 1013.9
20260508152638 70 94 1.0 2.0 0.00 0.00 0.00 73 1014.0
20260508152133 70 113 2.0 2.0 0.00 0.00 0.00 74 1014.0
20260508151630 69 41 2.0 3.0 0.00 0.00 0.00 74 1014.0
20260508151127 69 129 2.0 2.0 0.00 0.00 0.00 75 1014.0
20260508150624 69 59 2.0 3.0 0.00 0.00 0.00 74 1014.2
20260508150121 70 74 2.0 2.0 0.00 0.00 0.00 73 1014.2
20260508145616 69 79 1.0 2.0 0.00 0.00 0.00 74 1014.1
20260508145113 69 93 1.0 2.0 0.00 0.00 0.00 74 1014.2
20260508144611 69 55 2.0 2.0 0.00 0.00 0.00 74 1014.1
20260508144108 69 85 2.0 3.0 0.00 0.00 0.00 74 1014.1
20260508143605 68 58 1.0 2.0 0.00 0.00 0.00 74 1014.1
20260508143102 68 83 2.0 2.0 0.00 0.00 0.00 75 1014.0
20260508142559 68 66 2.0 2.0 0.00 0.00 0.00 75 1013.9
20260508142055 68 130 2.0 3.0 0.00 0.00 0.00 74 1014.0
20260508141552 67 85 1.0 2.0 0.00 0.00 0.00 75 1013.9
20260508141049 67 75 2.0 2.0 0.00 0.00 0.00 77 1013.9
20260508140547 67 109 2.0 2.0 0.00 0.00 0.00 76 1014.1
20260508140043 66 70 2.0 2.0 0.00 0.00 0.00 76 1014.1
20260508135538 66 72 2.0 2.0 0.00 0.00 0.00 76 1014.2
20260508135035 66 76 2.0 2.0 0.00 0.00 0.00 77 1014.3
20260508134532 66 88 1.0 2.0 0.00 0.00 0.00 77 1014.4
20260508134029 65 89 1.0 2.0 0.00 0.00 0.00 78 1014.3
20260508133526 65 83 1.0 2.0 0.00 0.00 0.00 78 1014.5
20260508133023 65 75 2.0 3.0 0.00 0.00 0.00 78 1014.6
20260508132521 64 82 1.0 3.0 0.00 0.00 0.00 79 1014.2
20260508132018 64 102 1.0 3.0 0.00 0.00 0.00 78 1014.1
20260508131512 64 13 2.0 2.0 0.00 0.00 0.00 78 1014.0
20260508131010 64 85 1.0 3.0 0.00 0.00 0.00 79 1014.5
20260508130507 63 77 2.0 3.0 0.00 0.00 0.00 79 1014.5
20260508130002 64 119 1.0 2.0 0.00 0.00 0.00 79 1014.4
20260508125459 63 97 2.0 2.0 0.00 0.00 0.00 80 1014.4
20260508124957 63 103 2.0 2.0 0.00 0.00 0.00 80 1014.4
20260508124454 63 85 2.0 2.0 0.00 0.00 0.00 80 1014.6
20260508123951 63 111 2.0 3.0 0.00 0.00 0.00 79 1014.5
20260508123450 63 98 2.0 2.0 0.00 0.00 0.00 80 1014.2
20260508122946 63 65 2.0 2.0 0.00 0.00 0.00 79 1014.3
20260508122443 63 76 1.0 3.0 0.00 0.00 0.00 79 1014.3
20260508121940 63 72 0.0 2.0 0.00 0.00 0.00 79 1014.5
20260508121438 63 104 2.0 3.0 0.00 0.00 0.00 80 1014.8
20260508120936 63 120 1.0 2.0 0.00 0.00 0.00 79 1014.9
20260508120433 63 105 2.0 2.0 0.00 0.00 0.00 79 1014.9
20260508115931 63 94 2.0 3.0 0.00 0.00 0.00 79 1015.0
20260508115429 63 97 1.0 3.0 0.00 0.00 0.00 79 1015.0
20260508114925 63 102 2.0 3.0 0.00 0.00 0.00 79 1015.1
20260508114422 63 74 2.0 2.0 0.00 0.00 0.00 79 1015.0
20260508113918 63 32 2.0 4.0 0.00 0.00 0.00 79 1015.3
20260508113416 63 22 1.0 2.0 0.00 0.00 0.00 79 1015.1
20260508112913 63 72 2.0 3.0 0.00 0.00 0.00 79 1015.3
20260508112410 63 87 2.0 2.0 0.00 0.00 0.00 79 1014.9
20260508111907 63 88 2.0 2.0 0.00 0.00 0.00 79 1015.1
20260508111404 63 88 1.0 3.0 0.00 0.00 0.00 79 1015.2
20260508110901 63 111 2.0 2.0 0.00 0.00 0.00 79 1015.1
20260508110359 63 135 0.0 3.0 0.00 0.00 0.00 78 1014.6
20260508105858 63 91 2.0 2.0 0.00 0.00 0.00 79 1014.5
20260508105355 62 105 2.0 3.0 0.00 0.00 0.00 79 1014.5
20260508104852 62 95 2.0 2.0 0.00 0.00 0.00 78 1014.6
20260508104349 62 132 3.0 3.0 0.00 0.00 0.00 78 1014.6
20260508103846 62 93 2.0 2.0 0.00 0.00 0.00 78 1014.9
20260508103343 62 88 2.0 2.0 0.00 0.00 0.00 78 1014.8
20260508102840 62 57 2.0 3.0 0.00 0.00 0.00 78 1014.5
20260508102338 62 57 2.0 2.0 0.00 0.00 0.00 78 1014.8
20260508101836 62 60 0.0 2.0 0.00 0.00 0.00 79 1014.9
20260508101333 62 51 2.0 2.0 0.00 0.00 0.00 79 1015.0
20260508100830 62 63 2.0 3.0 0.00 0.00 0.00 79 1014.8
20260508100329 62 78 2.0 2.0 0.00 0.00 0.00 79 1015.0
20260508095824 62 94 1.0 2.0 0.00 0.00 0.00 78 1015.1
20260508095322 62 68 2.0 3.0 0.00 0.00 0.00 81 1015.0
20260508094819 62 76 1.0 3.0 0.00 0.00 0.00 80 1015.0
20260508094316 62 73 2.0 2.0 0.00 0.00 0.00 81 1015.3
20260508093812 63 65 2.0 2.0 0.00 0.00 0.00 80 1015.2
20260508093310 63 88 2.0 2.0 0.00 0.00 0.00 78 1015.3
20260508092807 63 73 2.0 2.0 0.00 0.00 0.00 78 1015.3
20260508092312 63 77 2.0 2.0 0.00 0.00 0.00 78 1015.3
20260508091803 63 99 1.0 2.0 0.00 0.00 0.00 78 1015.0
20260508091259 63 58 2.0 2.0 0.00 0.00 0.00 80 1015.0
20260508090757 62 63 2.0 2.0 0.00 0.00 0.00 80 1014.5
20260508090255 62 82 1.0 2.0 0.00 0.00 0.00 81 1014.6
20260508085751 63 70 2.0 2.0 0.00 0.00 0.00 80 1014.6
20260508085248 62 67 2.0 3.0 0.00 0.00 0.00 80 1014.8
20260508084744 62 83 2.0 2.0 0.00 0.00 0.00 81 1014.9
20260508084242 62 77 2.0 2.0 0.00 0.00 0.00 80 1014.5
20260508083739 63 71 2.0 2.0 0.00 0.00 0.00 81 1014.6
20260508083237 63 80 2.0 2.0 0.00 0.00 0.00 80 1014.8
20260508082736 63 83 2.0 2.0 0.00 0.00 0.00 80 1014.8
20260508082235 63 88 2.0 2.0 0.00 0.00 0.00 78 1015.0
20260508081732 63 89 1.0 2.0 0.00 0.00 0.00 77 1014.9
20260508081228 63 86 2.0 2.0 0.00 0.00 0.00 76 1015.0
20260508080725 63 78 2.0 2.0 0.00 0.00 0.00 75 1014.9
20260508080223 63 79 2.0 3.0 0.00 0.00 0.00 75 1014.8
20260508075720 63 68 2.0 3.0 0.00 0.00 0.00 76 1014.8
20260508075217 63 85 2.0 2.0 0.00 0.00 0.00 77 1014.9
20260508074714 63 84 1.0 2.0 0.00 0.00 0.00 76 1014.8
20260508074212 63 59 2.0 2.0 0.00 0.00 0.00 77 1014.9
20260508073708 63 61 2.0 2.0 0.00 0.00 0.00 78 1014.8
20260508073206 63 76 2.0 3.0 0.00 0.00 0.00 78 1014.5
20260508072702 63 68 2.0 2.0 0.00 0.00 0.00 77 1014.6
20260508072159 62 55 2.0 2.0 0.00 0.00 0.00 79 1014.6
20260508071656 62 81 1.0 3.0 0.00 0.00 0.00 78 1014.9
20260508071155 62 75 2.0 2.0 0.00 0.00 0.00 78 1014.6
20260508070652 62 83 2.0 2.0 0.00 0.00 0.00 78 1014.8
20260508070150 62 96 1.0 2.0 0.00 0.00 0.00 78 1014.9
20260508065647 62 83 1.0 3.0 0.00 0.00 0.00 78 1015.3
20260508065145 62 62 2.0 2.0 0.00 0.00 0.00 78 1015.3
20260508064642 62 74 2.0 2.0 0.00 0.00 0.00 78 1015.4
20260508064140 62 71 2.0 2.0 0.00 0.00 0.00 78 1015.5
20260508063637 62 84 2.0 2.0 0.00 0.00 0.00 79 1015.6
20260508063135 62 83 2.0 2.0 0.00 0.00 0.00 78 1015.8
20260508062633 62 75 2.0 2.0 0.00 0.00 0.00 79 1016.1
20260508062129 62 66 2.0 2.0 0.00 0.00 0.00 80 1016.0
20260508061627 62 85 2.0 2.0 0.00 0.00 0.00 80 1015.9
20260508061124 62 77 2.0 2.0 0.00 0.00 0.00 79 1016.0
20260508060620 62 92 2.0 2.0 0.00 0.00 0.00 79 1015.8
20260508060118 62 75 2.0 3.0 0.00 0.00 0.00 79 1015.5
20260508055613 62 55 1.0 2.0 0.00 0.00 0.00 78 1015.4
20260508055110 62 82 2.0 2.0 0.00 0.00 0.00 79 1015.7
20260508054607 62 60 2.0 2.0 0.00 0.00 0.00 78 1015.9
20260508054104 62 79 2.0 2.0 0.00 0.00 0.00 78 1015.7
20260508053601 62 100 2.0 2.0 0.00 0.00 0.00 77 1016.2
20260508053059 62 60 2.0 2.0 0.00 0.00 0.00 78 1015.8
20260508052556 62 66 2.0 2.0 0.00 0.00 0.00 77 1015.9
20260508052053 62 63 2.0 2.0 0.00 0.00 0.00 77 1015.6
20260508051549 63 81 2.0 2.0 0.00 0.00 0.00 79 1015.4
20260508051045 63 66 2.0 3.0 0.00 0.00 0.00 77 1015.3
20260508050541 63 60 1.0 3.0 0.00 0.00 0.00 79 1015.5
20260508050038 63 123 2.0 3.0 0.00 0.00 0.00 76 1015.6
20260508045534 63 65 2.0 2.0 0.00 0.00 0.00 76 1016.2
20260508045032 63 89 2.0 4.0 0.00 0.00 0.00 76 1016.4
20260508044530 63 53 2.0 3.0 0.00 0.00 0.00 76 1016.4
20260508044025 63 64 1.0 2.0 0.00 0.00 0.00 75 1015.7
20260508043522 63 60 0.0 2.0 0.00 0.00 0.00 75 1015.3
20260508043020 63 87 2.0 2.0 0.00 0.00 0.00 75 1015.3
20260508042516 63 92 2.0 2.0 0.00 0.00 0.00 75 1015.3
20260508042014 63 65 2.0 2.0 0.00 0.00 0.00 75 1015.8
20260508041510 63 96 2.0 2.0 0.00 0.00 0.00 75 1015.9
20260508041006 63 79 2.0 2.0 0.00 0.00 0.00 76 1015.9
20260508040504 63 75 2.0 2.0 0.00 0.00 0.00 77 1016.1
20260508040001 63 76 2.0 2.0 0.00 0.00 0.00 76 1015.9
20260508035458 63 83 2.0 2.0 0.00 0.00 0.00 76 1016.0
20260508034955 63 85 2.0 2.0 0.00 0.00 0.00 76 1016.3
20260508034452 63 89 2.0 2.0 0.00 0.00 0.00 75 1016.4
20260508033948 63 78 2.0 2.0 0.00 0.00 0.00 75 1016.7
20260508033447 63 92 2.0 2.0 0.00 0.00 0.00 74 1016.7
20260508032944 63 88 2.0 2.0 0.00 0.00 0.00 74 1016.9
20260508032441 63 60 2.0 3.0 0.00 0.00 0.00 74 1017.0
20260508031938 64 86 2.0 3.0 0.00 0.00 0.00 72 1017.0
20260508031436 64 64 2.0 2.0 0.00 0.00 0.00 72 1016.8
20260508030931 64 101 1.0 2.0 0.00 0.00 0.00 72 1016.7
20260508030428 64 60 2.0 2.0 0.00 0.00 0.00 72 1016.5
20260508025925 64 87 2.0 2.0 0.00 0.00 0.00 72 1016.1
20260508025422 64 63 2.0 2.0 0.00 0.00 0.00 72 1015.7
20260508024919 64 84 2.0 2.0 0.00 0.00 0.00 72 1015.7
20260508024416 64 94 2.0 2.0 0.00 0.00 0.00 72 1015.9
20260508023912 64 93 1.0 2.0 0.00 0.00 0.00 71 1015.7
20260508023409 64 82 1.0 2.0 0.00 0.00 0.00 71 1015.4
20260508022906 64 74 2.0 3.0 0.00 0.00 0.00 72 1014.5
20260508022401 64 86 2.0 2.0 0.00 0.00 0.00 73 1014.2
20260508021859 64 67 2.0 3.0 0.00 0.00 0.00 71 1014.1
20260508021354 64 94 1.0 2.0 0.00 0.00 0.00 71 1014.5
20260508020850 64 77 1.0 2.0 0.00 0.00 0.00 70 1014.5
20260508020349 64 100 1.0 2.0 0.00 0.00 0.00 70 1014.2
20260508015846 64 92 2.0 3.0 0.00 0.00 0.00 70 1014.6
20260508015343 64 73 2.0 3.0 0.00 0.00 0.00 70 1014.5
20260508014839 65 75 2.0 2.0 0.00 0.00 0.00 70 1014.1
20260508014337 65 83 2.0 3.0 0.00 0.00 0.00 69 1013.9
20260508013837 65 104 1.0 2.0 0.00 0.00 0.00 68 1014.1
20260508013334 65 96 2.0 2.0 0.00 0.00 0.00 68 1014.3
20260508012831 65 78 2.0 2.0 0.00 0.00 0.00 69 1014.4
20260508012329 65 70 1.0 2.0 0.00 0.00 0.00 67 1015.0
20260508011826 65 79 1.0 2.0 0.00 0.00 0.00 66 1014.4
20260508011324 65 89 1.0 3.0 0.00 0.00 0.00 66 1014.8
20260508010821 66 79 2.0 3.0 0.00 0.00 0.00 66 1015.3
20260508010319 66 106 2.0 4.0 0.00 0.00 0.00 65 1014.6
20260508005815 66 62 2.0 2.0 0.00 0.00 0.00 65 1014.5
20260508005312 66 77 2.0 2.0 0.00 0.00 0.00 65 1014.8
20260508004808 66 65 0.0 2.0 0.00 0.00 0.00 63 1014.8
20260508004304 66 86 2.0 3.0 0.00 0.00 0.00 64 1015.1
20260508003801 67 99 0.0 2.0 0.00 0.00 0.00 64 1015.4
20260508003259 67 104 2.0 4.0 0.00 0.00 0.00 63 1015.0
20260508002755 67 81 2.0 2.0 0.00 0.00 0.00 64 1014.8
20260508002252 67 88 2.0 2.0 0.00 0.00 0.00 62 1015.6
20260508001748 67 121 0.0 2.0 0.00 0.00 0.00 61 1015.7
20260508001243 67 126 1.0 2.0 0.00 0.00 0.00 60 1015.8
20260508000740 67 77 2.0 2.0 0.00 0.00 0.00 62 1015.3
20260508000237 68 77 2.0 2.0 0.00 0.00 0.00 62 1015.7
20260507235733 67 102 1.0 2.0 0.00 0.00 0.00 63 1015.9
20260507235231 68 46 2.0 2.0 0.00 0.00 0.00 61 1016.0
20260507234728 68 219 0.0 2.0 0.00 0.00 0.00 61 1016.1
20260507234225 68 78 2.0 3.0 0.00 0.00 0.00 63 1015.9
20260507233721 68 59 2.0 3.0 0.00 0.00 0.00 63 1016.1
20260507233219 68 79 2.0 2.0 0.00 0.00 0.00 64 1015.9
20260507232716 68 44 3.0 3.0 0.00 0.00 0.00 63 1016.3
20260507232213 68 73 1.0 2.0 0.00 0.00 0.00 62 1016.0
20260507231710 68 73 2.0 2.0 0.00 0.00 0.00 62 1016.1
20260507231207 68 67 2.0 3.0 0.00 0.00 0.00 62 1015.8
20260507230703 68 79 2.0 2.0 0.00 0.00 0.00 60 1016.1
20260507230201 68 51 2.0 2.0 0.00 0.00 0.00 62 1016.0
20260507225700 68 88 0.0 2.0 0.00 0.00 0.00 60 1016.0
20260507225157 68 237 0.0 2.0 0.00 0.00 0.00 60 1016.0
20260507224653 68 58 0.0 2.0 0.00 0.00 0.00 60 1016.0
20260507224149 68 159 1.0 2.0 0.00 0.00 0.00 61 1015.9
20260507223645 68 66 2.0 3.0 0.00 0.00 0.00 65 1016.2
20260507223142 68 77 0.0 2.0 0.00 0.00 0.00 62 1016.3
20260507222639 68 60 2.0 2.0 0.00 0.00 0.00 63 1016.6
20260507222136 68 71 0.0 4.0 0.00 0.00 0.00 62 1016.5
20260507221632 68 71 2.0 2.0 0.00 0.00 0.00 62 1016.7
20260507221128 68 61 2.0 3.0 0.00 0.00 0.00 62 1016.4
20260507220626 68 68 1.0 3.0 0.00 0.00 0.00 62 1016.5
20260507220123 68 22 1.0 4.0 0.00 0.00 0.00 62 1016.4
20260507215619 68 108 2.0 2.0 0.00 0.00 0.00 62 1016.3
20260507215117 68 104 0.0 3.0 0.00 0.00 0.00 61 1016.7
20260507214614 69 40 2.0 3.0 0.00 0.00 0.00 61 1016.5
20260507214110 68 97 1.0 2.0 0.00 0.00 0.00 63 1016.6
20260507213607 69 97 2.0 3.0 0.00 0.00 0.00 62 1016.8
20260507213104 70 120 2.0 3.0 0.00 0.00 0.00 59 1016.6
20260507212600 70 82 2.0 2.0 0.00 0.00 0.00 60 1016.5
20260507212057 69 25 2.0 2.0 0.00 0.00 0.00 61 1016.5
20260507211553 70 30 0.0 3.0 0.00 0.00 0.00 60 1016.4
20260507211049 69 85 1.0 3.0 0.00 0.00 0.00 62 1016.4
20260507210547 68 73 2.0 3.0 0.00 0.00 0.00 61 1016.5
20260507210043 68 0 1.0 2.0 0.00 0.00 0.00 62 1016.4
20260507205540 68 57 2.0 3.0 0.00 0.00 0.00 64 1016.4
20260507205037 67 22 1.0 3.0 0.00 0.00 0.00 63 1016.4
20260507204533 67 94 0.0 3.0 0.00 0.00 0.00 63 1016.8
20260507204031 68 83 2.0 2.0 0.00 0.00 0.00 64 1017.4
20260507203528 69 188 2.0 4.0 0.00 0.00 0.00 60 1017.4
20260507203026 69 180 0.0 3.0 0.00 0.00 0.00 60 1017.4
20260507202521 67 182 4.0 4.0 0.00 0.00 0.00 62 1017.3
20260507202018 66 78 0.0 4.0 0.00 0.00 0.00 65 1017.3
20260507201513 67 50 2.0 4.0 0.00 0.00 0.00 64 1017.3
20260507201010 68 79 2.0 3.0 0.00 0.00 0.00 62 1017.5
20260507200505 67 89 0.0 3.0 0.00 0.00 0.00 64 1017.2
20260507200001 68 174 2.0 3.0 0.00 0.00 0.00 61 1017.4
20260507195459 68 60 1.0 4.0 0.00 0.00 0.00 63 1017.7
20260507194956 67 69 2.0 3.0 0.00 0.00 0.00 65 1017.8
20260507194453 66 86 2.0 4.0 0.00 0.00 0.00 64 1017.6
20260507193948 67 92 1.0 3.0 0.00 0.00 0.00 64 1017.6
20260507193446 67 56 0.0 4.0 0.00 0.00 0.00 64 1017.5
20260507192942 67 47 2.0 4.0 0.00 0.00 0.00 65 1017.7
20260507192438 66 49 2.0 4.0 0.00 0.00 0.00 66 1018.0
20260507191936 66 59 2.0 3.0 0.00 0.00 0.00 69 1017.9
20260507191431 66 21 1.0 4.0 0.00 0.00 0.00 67 1018.0
20260507190928 65 71 2.0 4.0 0.00 0.00 0.00 69 1017.9
20260507190426 65 80 1.0 2.0 0.00 0.00 0.00 68 1017.5
20260507185925 66 62 3.0 3.0 0.00 0.00 0.00 69 1017.9
20260507185422 65 65 2.0 4.0 0.00 0.00 0.00 68 1017.8
20260507184918 66 78 2.0 4.0 0.00 0.00 0.00 66 1018.3
20260507184416 66 44 2.0 4.0 0.00 0.00 0.00 67 1017.8
20260507183914 65 71 1.0 3.0 0.00 0.00 0.00 69 1018.1
20260507183410 66 73 3.0 4.0 0.00 0.00 0.00 68 1018.3
20260507182908 66 116 3.0 4.0 0.00 0.00 0.00 66 1018.2
20260507182403 66 45 2.0 3.0 0.00 0.00 0.00 70 1018.7
20260507181900 65 51 0.0 3.0 0.00 0.00 0.00 69 1018.2
20260507181356 64 67 3.0 5.0 0.00 0.00 0.00 69 1018.2
20260507180853 64 127 2.0 3.0 0.00 0.00 0.00 69 1018.2
20260507180349 65 253 1.0 3.0 0.00 0.00 0.00 69 1018.3
20260507175845 64 76 2.0 4.0 0.00 0.00 0.00 72 1018.0
20260507175343 64 59 2.0 3.0 0.00 0.00 0.00 73 1017.9
20260507174840 64 73 3.0 3.0 0.00 0.00 0.00 72 1017.9
20260507174337 64 58 2.0 2.0 0.00 0.00 0.00 72 1017.8
20260507173835 64 80 1.0 2.0 0.00 0.00 0.00 71 1018.3
20260507173331 64 89 1.0 3.0 0.00 0.00 0.00 72 1018.4
20260507172828 64 182 2.0 3.0 0.00 0.00 0.00 72 1018.2
20260507172325 63 83 1.0 3.0 0.00 0.00 0.00 72 1018.2